weather.gov     
National Weather Service

Terminal Aerodrome Forecast
NWS Homepage
This page is being discontinued on March 12, 2014.
The same data is available at this site. Please update your bookmarks.
Thank you, and we apologize for the inconvenience.
Please send an email to SR-SRH.Webmaster@noaa.gov with any concerns.


Current Version
Previous Version:    01  02  03  04  05  06  07  08  09  10  11  12  13  14  15  16  17  18  19  20  21  22  23  24  25  26  27  28  29  30  
   31  32  33  34  35  36  37  38  39  40  41  42  43  44  45  46  47  
[Printable]
802
FTUS41 KRLX 281100
TAFPKB
TAF
KPKB 281130Z 2812/2912 26008KT P6SM BKN020
     FM281600 29010G16KT P6SM SCT025
     FM281800 29011G16KT P6SM VCSH BKN035
     FM282100 30010G15KT P6SM BKN040
     FM290000 32006KT P6SM BKN080
     FM290700 00000KT 4SM BR SCT080
     FM290800 00000KT 1/2SM FG VV001
      AMD NOT SKED=


U.S. Dept. of Commerce
NOAA National Weather Service
1325 East West Highway
Silver Spring, MD 20910
E-mail: w-nws.webmaster@noaa.gov
Page last modified: May 16, 2007
NATIONAL WEATHER SERVICE: for Safety, for Work, for Fun - FOR LIFE